Time,TemperatureF,DewpointF,PressureIn,WindDirection,WindDirectionDegrees,WindSpeedMPH,WindSpeedGustMPH,Humidity,HourlyPrecipIn,Conditions,Clouds,dailyrainin,SoftwareType,DateUTC
2013-08-06 00:01:00,54.0,48.0,29.98,NW,309,0.0,0.0,79,0.00,,,0.00,,2013-08-06 06:01:00,
2013-08-06 00:11:00,54.0,48.0,29.98,NW,309,0.0,0.0,79,0.00,,,0.00,,2013-08-06 06:11:00,
2013-08-06 00:32:00,53.0,46.0,29.97,NW,309,0.0,0.0,77,0.00,,,0.00,,2013-08-06 06:32:00,
2013-08-06 00:43:00,53.0,46.0,29.97,NW,309,0.0,0.0,77,0.00,,,0.00,,2013-08-06 06:43:00,
2013-08-06 00:52:00,53.0,46.0,29.96,NW,309,0.0,0.0,78,0.00,,,0.00,,2013-08-06 06:52:00,
2013-08-06 01:01:00,53.0,46.0,29.96,NW,309,0.0,0.0,78,0.00,,,0.00,,2013-08-06 07:01:00,
2013-08-06 01:11:00,53.0,46.0,29.96,NW,309,0.0,0.0,78,0.00,,,0.00,,2013-08-06 07:11:00,
2013-08-06 01:32:00,52.0,45.0,29.98,NW,309,0.0,0.0,77,0.00,,,0.00,,2013-08-06 07:32:00,
2013-08-06 01:43:00,52.0,45.0,29.98,NW,309,0.0,0.0,77,0.00,,,0.00,,2013-08-06 07:43:00,
2013-08-06 01:53:00,51.0,45.0,29.98,NW,309,0.0,1.0,79,0.00,,,0.00,,2013-08-06 07:53:00,
2013-08-06 02:01:00,51.0,45.0,29.98,NW,309,0.0,1.0,79,0.00,,,0.00,,2013-08-06 08:01:00,
2013-08-06 02:11:00,51.0,45.0,29.98,NW,309,0.0,1.0,79,0.00,,,0.00,,2013-08-06 08:11:00,
2013-08-06 02:32:00,51.0,44.0,29.96,NW,309,0.0,1.0,78,0.00,,,0.00,,2013-08-06 08:32:00,
2013-08-06 02:43:00,51.0,44.0,29.96,NW,309,0.0,1.0,78,0.00,,,0.00,,2013-08-06 08:43:00,
2013-08-06 02:52:00,50.0,44.0,29.97,NW,309,0.0,0.0,79,0.00,,,0.00,,2013-08-06 08:52:00,
2013-08-06 03:01:00,50.0,44.0,29.97,NW,309,0.0,0.0,79,0.00,,,0.00,,2013-08-06 09:01:00,
2013-08-06 03:11:00,50.0,44.0,29.97,NW,309,0.0,0.0,79,0.00,,,0.00,,2013-08-06 09:11:00,
2013-08-06 03:32:00,50.0,44.0,29.97,NW,309,0.0,0.0,80,0.00,,,0.00,,2013-08-06 09:32:00,
2013-08-06 03:43:00,50.0,44.0,29.97,NW,309,0.0,0.0,80,0.00,,,0.00,,2013-08-06 09:43:00,
2013-08-06 03:52:00,49.0,44.0,29.97,NW,309,0.0,0.0,82,0.00,,,0.00,,2013-08-06 09:52:00,
2013-08-06 04:01:00,49.0,44.0,29.97,NW,309,0.0,0.0,82,0.00,,,0.00,,2013-08-06 10:01:00,
2013-08-06 04:11:00,49.0,44.0,29.97,NW,309,0.0,0.0,82,0.00,,,0.00,,2013-08-06 10:11:00,
2013-08-06 04:22:00,49.0,43.0,29.97,NW,309,0.0,1.0,81,0.00,,,0.00,,2013-08-06 10:22:00,
2013-08-06 04:32:00,49.0,43.0,29.97,NW,309,0.0,1.0,81,0.00,,,0.00,,2013-08-06 10:32:00,
2013-08-06 04:43:00,49.0,43.0,29.97,NW,309,0.0,1.0,81,0.00,,,0.00,,2013-08-06 10:43:00,
2013-08-06 04:53:00,48.0,43.0,29.96,NW,309,0.0,1.0,83,0.00,,,0.00,,2013-08-06 10:53:00,
2013-08-06 05:01:00,48.0,43.0,29.96,NW,309,0.0,1.0,83,0.00,,,0.00,,2013-08-06 11:01:00,
2013-08-06 05:11:00,48.0,43.0,29.96,NW,309,0.0,1.0,83,0.00,,,0.00,,2013-08-06 11:11:00,
2013-08-06 05:21:00,48.0,43.0,29.96,NW,309,0.0,0.0,84,0.00,,,0.00,,2013-08-06 11:21:00,
2013-08-06 05:32:00,48.0,43.0,29.96,NW,309,0.0,0.0,84,0.00,,,0.00,,2013-08-06 11:32:00,
2013-08-06 05:43:00,48.0,43.0,29.96,NW,309,0.0,0.0,84,0.00,,,0.00,,2013-08-06 11:43:00,
2013-08-06 05:53:00,47.0,43.0,29.98,NW,309,0.0,0.0,86,0.00,,,0.00,,2013-08-06 11:53:00,
2013-08-06 06:01:00,47.0,43.0,29.98,NW,309,0.0,0.0,86,0.00,,,0.00,,2013-08-06 12:01:00,
2013-08-06 06:11:00,47.0,43.0,29.98,NW,309,0.0,0.0,86,0.00,,,0.00,,2013-08-06 12:11:00,
2013-08-06 06:31:00,47.0,43.0,29.99,NW,309,0.0,0.0,87,0.00,,,0.00,,2013-08-06 12:31:00,
2013-08-06 06:43:00,47.0,43.0,29.99,NW,309,0.0,0.0,87,0.00,,,0.00,,2013-08-06 12:43:00,
2013-08-06 06:52:00,47.0,44.0,29.98,NW,309,0.0,0.0,88,0.00,,,0.00,,2013-08-06 12:52:00,
2013-08-06 07:01:00,47.0,44.0,29.98,NW,309,0.0,0.0,88,0.00,,,0.00,,2013-08-06 13:01:00,
2013-08-06 07:11:00,47.0,44.0,29.98,NW,309,0.0,0.0,88,0.00,,,0.00,,2013-08-06 13:11:00,
2013-08-06 07:32:00,47.0,44.0,29.98,NW,309,0.0,0.0,88,0.00,,,0.00,,2013-08-06 13:32:00,
2013-08-06 07:42:00,47.0,44.0,29.98,NW,309,0.0,0.0,88,0.00,,,0.00,,2013-08-06 13:42:00,
2013-08-06 07:53:00,47.0,44.0,29.98,NW,309,0.0,0.0,88,0.00,,,0.00,,2013-08-06 13:53:00,
2013-08-06 08:01:00,48.0,45.0,29.98,NW,309,0.0,0.0,88,0.00,,,0.00,,2013-08-06 14:01:00,
2013-08-06 08:11:00,48.0,45.0,29.98,NW,309,0.0,0.0,88,0.00,,,0.00,,2013-08-06 14:11:00,
2013-08-06 08:32:00,50.0,46.0,30.01,NW,309,0.0,0.0,86,0.00,,,0.00,,2013-08-06 14:32:00,
2013-08-06 08:42:00,50.0,46.0,30.01,NW,309,0.0,0.0,86,0.00,,,0.00,,2013-08-06 14:42:00,
2013-08-06 08:53:00,56.0,49.0,30.00,ENE,66,0.0,0.0,76,0.00,,,0.00,,2013-08-06 14:53:00,
2013-08-06 09:02:00,56.0,49.0,30.00,ENE,66,0.0,0.0,76,0.00,,,0.00,,2013-08-06 15:02:00,
2013-08-06 09:11:00,56.0,49.0,30.00,ENE,66,0.0,0.0,76,0.00,,,0.00,,2013-08-06 15:11:00,
2013-08-06 09:33:00,62.0,49.0,30.01,NNE,25,0.0,1.0,62,0.00,,,0.00,,2013-08-06 15:33:00,
2013-08-06 09:44:00,62.0,49.0,30.01,NNE,25,0.0,1.0,62,0.00,,,0.00,,2013-08-06 15:44:00,
2013-08-06 09:52:00,65.0,50.0,30.01,West,271,0.0,2.0,59,0.00,,,0.00,,2013-08-06 15:52:00,
2013-08-06 10:01:00,65.0,50.0,30.01,West,271,0.0,2.0,59,0.00,,,0.00,,2013-08-06 16:01:00,
2013-08-06 10:11:00,65.0,50.0,30.01,West,271,0.0,2.0,59,0.00,,,0.00,,2013-08-06 16:11:00,
2013-08-06 10:22:00,67.0,50.0,30.01,NW,322,0.0,4.0,55,0.00,,,0.00,,2013-08-06 16:22:00,
2013-08-06 10:32:00,67.0,50.0,30.01,NW,322,0.0,4.0,55,0.00,,,0.00,,2013-08-06 16:32:00,
2013-08-06 10:43:00,67.0,50.0,30.01,NW,322,0.0,4.0,55,0.00,,,0.00,,2013-08-06 16:43:00,
2013-08-06 10:52:00,68.0,50.0,30.02,WNW,298,1.0,5.0,53,0.00,,,0.00,,2013-08-06 16:52:00,
2013-08-06 11:01:00,68.0,50.0,30.02,WNW,298,1.0,5.0,53,0.00,,,0.00,,2013-08-06 17:01:00,
2013-08-06 11:11:00,68.0,50.0,30.02,WNW,298,1.0,5.0,53,0.00,,,0.00,,2013-08-06 17:11:00,
2013-08-06 11:32:00,70.0,51.0,30.00,NW,316,1.0,4.0,51,0.00,,,0.00,,2013-08-06 17:32:00,
2013-08-06 11:44:00,70.0,51.0,30.00,NW,316,1.0,4.0,51,0.00,,,0.00,,2013-08-06 17:44:00,
2013-08-06 11:52:00,73.0,50.0,30.02,NW,322,2.0,7.0,45,0.00,,,0.00,,2013-08-06 17:52:00,
2013-08-06 12:01:00,73.0,50.0,30.02,NW,322,2.0,7.0,45,0.00,,,0.00,,2013-08-06 18:01:00,
2013-08-06 12:11:00,73.0,50.0,30.02,NW,322,2.0,7.0,45,0.00,,,0.00,,2013-08-06 18:11:00,
2013-08-06 12:32:00,74.0,52.0,30.02,NW,313,0.0,5.0,46,0.00,,,0.00,,2013-08-06 18:32:00,
2013-08-06 12:43:00,74.0,52.0,30.02,NW,313,0.0,5.0,46,0.00,,,0.00,,2013-08-06 18:43:00,
2013-08-06 12:52:00,74.0,52.0,30.02,NW,313,0.0,5.0,46,0.00,,,0.00,,2013-08-06 18:52:00,
2013-08-06 13:01:00,74.0,52.0,30.02,NW,313,0.0,5.0,46,0.00,,,0.00,,2013-08-06 19:01:00,
2013-08-06 13:22:00,77.0,50.0,30.01,East,80,2.0,6.0,39,0.00,,,0.00,,2013-08-06 19:22:00,
2013-08-06 13:32:00,77.0,50.0,30.01,East,80,2.0,6.0,39,0.00,,,0.00,,2013-08-06 19:32:00,
2013-08-06 13:42:00,77.0,50.0,30.01,East,80,2.0,6.0,39,0.00,,,0.00,,2013-08-06 19:42:00,
2013-08-06 13:52:00,76.0,45.0,29.99,WNW,294,0.0,3.0,33,0.00,,,0.00,,2013-08-06 19:52:00,
2013-08-06 14:01:00,76.0,45.0,29.99,WNW,294,0.0,3.0,33,0.00,,,0.00,,2013-08-06 20:01:00,
2013-08-06 14:11:00,76.0,45.0,29.99,WNW,294,0.0,3.0,33,0.00,,,0.00,,2013-08-06 20:11:00,
2013-08-06 14:32:00,77.0,50.0,30.00,NE,38,1.0,4.0,39,0.00,,,0.00,,2013-08-06 20:32:00,
2013-08-06 14:44:00,77.0,50.0,30.00,NE,38,1.0,4.0,39,0.00,,,0.00,,2013-08-06 20:44:00,
2013-08-06 14:52:00,76.0,51.0,30.00,SE,132,2.0,5.0,42,0.00,,,0.00,,2013-08-06 20:52:00,
2013-08-06 15:01:00,76.0,51.0,30.00,SE,132,2.0,5.0,42,0.00,,,0.00,,2013-08-06 21:01:00,
2013-08-06 15:11:00,76.0,51.0,30.00,SE,132,2.0,5.0,42,0.00,,,0.00,,2013-08-06 21:11:00,
2013-08-06 15:32:00,77.0,49.0,30.00,ENE,69,2.0,5.0,37,0.00,,,0.00,,2013-08-06 21:32:00,
2013-08-06 15:43:00,77.0,49.0,30.00,ENE,69,2.0,5.0,37,0.00,,,0.00,,2013-08-06 21:43:00,
2013-08-06 15:52:00,76.0,49.0,29.98,ESE,117,0.0,4.0,38,0.00,,,0.00,,2013-08-06 21:52:00,
2013-08-06 16:01:00,76.0,49.0,29.98,ESE,117,0.0,4.0,38,0.00,,,0.00,,2013-08-06 22:01:00,
2013-08-06 16:11:00,76.0,49.0,29.98,ESE,117,0.0,4.0,38,0.00,,,0.00,,2013-08-06 22:11:00,
2013-08-06 16:21:00,77.0,48.0,30.00,NNW,329,1.0,6.0,36,0.00,,,0.00,,2013-08-06 22:21:00,
2013-08-06 16:32:00,77.0,48.0,30.00,NNW,329,1.0,6.0,36,0.00,,,0.00,,2013-08-06 22:32:00,
2013-08-06 16:43:00,77.0,48.0,30.00,NNW,329,1.0,6.0,36,0.00,,,0.00,,2013-08-06 22:43:00,
2013-08-06 16:53:00,77.0,48.0,29.97,ENE,75,2.0,5.0,36,0.00,,,0.00,,2013-08-06 22:53:00,
2013-08-06 17:01:00,77.0,48.0,29.97,ENE,75,2.0,5.0,36,0.00,,,0.00,,2013-08-06 23:01:00,
2013-08-06 17:11:00,77.0,48.0,29.97,ENE,75,2.0,5.0,36,0.00,,,0.00,,2013-08-06 23:11:00,
2013-08-06 17:22:00,76.0,46.0,29.97,NE,42,0.0,3.0,35,0.00,,,0.00,,2013-08-06 23:22:00,
2013-08-06 17:32:00,76.0,46.0,29.97,NE,42,0.0,3.0,35,0.00,,,0.00,,2013-08-06 23:32:00,
2013-08-06 17:43:00,76.0,46.0,29.97,NE,42,0.0,3.0,35,0.00,,,0.00,,2013-08-06 23:43:00,
2013-08-06 17:52:00,75.0,45.0,29.98,ESE,112,1.0,5.0,35,0.00,,,0.00,,2013-08-06 23:52:00,
2013-08-06 18:01:00,75.0,45.0,29.98,ESE,112,1.0,5.0,35,0.00,,,0.00,,2013-08-07 00:01:00,
2013-08-06 18:11:00,75.0,45.0,29.98,ESE,112,1.0,5.0,35,0.00,,,0.00,,2013-08-07 00:11:00,
2013-08-06 18:21:00,74.0,45.0,29.98,ENE,71,0.0,2.0,35,0.00,,,0.00,,2013-08-07 00:21:00,
2013-08-06 18:32:00,74.0,45.0,29.98,ENE,71,0.0,2.0,35,0.00,,,0.00,,2013-08-07 00:32:00,
2013-08-06 18:43:00,74.0,45.0,29.98,ENE,71,0.0,2.0,35,0.00,,,0.00,,2013-08-07 00:43:00,
2013-08-06 18:52:00,75.0,45.0,29.96,SE,127,0.0,2.0,34,0.00,,,0.00,,2013-08-07 00:52:00,
2013-08-06 19:01:00,75.0,45.0,29.96,SE,127,0.0,2.0,34,0.00,,,0.00,,2013-08-07 01:01:00,
2013-08-06 19:11:00,75.0,45.0,29.96,SE,127,0.0,2.0,34,0.00,,,0.00,,2013-08-07 01:11:00,
2013-08-06 19:32:00,74.0,45.0,29.96,East,93,0.0,2.0,36,0.00,,,0.00,,2013-08-07 01:32:00,
2013-08-06 19:43:00,74.0,45.0,29.96,East,93,0.0,2.0,36,0.00,,,0.00,,2013-08-07 01:43:00,
2013-08-06 19:52:00,72.0,47.0,29.96,East,98,0.0,0.0,41,0.00,,,0.00,,2013-08-07 01:52:00,
2013-08-06 20:01:00,72.0,47.0,29.96,East,98,0.0,0.0,41,0.00,,,0.00,,2013-08-07 02:01:00,
2013-08-06 20:11:00,72.0,47.0,29.96,East,98,0.0,0.0,41,0.00,,,0.00,,2013-08-07 02:11:00,
2013-08-06 20:33:00,70.0,49.0,29.96,East,98,0.0,0.0,47,0.00,,,0.00,,2013-08-07 02:33:00,
2013-08-06 20:43:00,70.0,49.0,29.96,East,98,0.0,0.0,47,0.00,,,0.00,,2013-08-07 02:43:00,
2013-08-06 20:53:00,69.0,48.0,29.95,East,98,0.0,0.0,47,0.00,,,0.00,,2013-08-07 02:53:00,
2013-08-06 21:01:00,69.0,48.0,29.95,East,98,0.0,0.0,47,0.00,,,0.00,,2013-08-07 03:01:00,
2013-08-06 21:11:00,69.0,48.0,29.95,East,98,0.0,0.0,47,0.00,,,0.00,,2013-08-07 03:11:00,
2013-08-06 21:22:00,65.0,51.0,29.96,East,98,0.0,0.0,60,0.00,,,0.00,,2013-08-07 03:22:00,
2013-08-06 21:32:00,65.0,51.0,29.96,East,98,0.0,0.0,60,0.00,,,0.00,,2013-08-07 03:32:00,
2013-08-06 21:33:00,62.0,49.0,29.96,East,98,0.0,1.0,62,0.00,,,0.00,,2013-08-07 03:33:00,
2013-08-06 21:43:00,65.0,51.0,29.96,East,98,0.0,0.0,60,0.00,,,0.00,,2013-08-07 03:43:00,
2013-08-06 21:52:00,62.0,49.0,29.96,East,98,0.0,1.0,62,0.00,,,0.00,,2013-08-07 03:52:00,
2013-08-06 22:01:00,62.0,49.0,29.96,East,98,0.0,1.0,62,0.00,,,0.00,,2013-08-07 04:01:00,
2013-08-06 22:11:00,62.0,49.0,29.96,East,98,0.0,1.0,62,0.00,,,0.00,,2013-08-07 04:11:00,
2013-08-06 22:21:00,62.0,49.0,29.96,East,98,0.0,1.0,62,0.00,,,0.00,,2013-08-07 04:21:00,
2013-08-06 22:52:00,58.0,46.0,29.97,East,94,0.0,1.0,64,0.00,,,0.00,,2013-08-07 04:52:00,
2013-08-06 23:02:00,58.0,46.0,29.97,East,94,0.0,1.0,64,0.00,,,0.00,,2013-08-07 05:02:00,
2013-08-06 23:11:00,58.0,46.0,29.97,East,94,0.0,1.0,64,0.00,,,0.00,,2013-08-07 05:11:00,
2013-08-06 23:22:00,58.0,46.0,29.97,East,94,0.0,1.0,64,0.00,,,0.00,,2013-08-07 05:22:00,
2013-08-06 23:32:00,58.0,46.0,29.97,East,94,0.0,1.0,64,0.00,,,0.00,,2013-08-07 05:32:00,
2013-08-06 23:43:00,58.0,46.0,29.97,East,94,0.0,1.0,64,0.00,,,0.00,,2013-08-07 05:43:00,
2013-08-06 23:52:00,57.0,45.0,29.95,WNW,297,0.0,1.0,63,0.00,,,0.00,,2013-08-07 05:52:00,